| time (UTC) | temp F | wind direction | speed knots | gust knots | rain 1hr in | rain 24hr in | rain mn in | humidity % | barometer mb |
| 20260504193023 | 79 | 46 | 5.2 | 8.7 | 0.00 | 1.61 | 0.84 | 81 | 1012.7 |
| 20260504191525 | 79 | 52 | 4.3 | 7.8 | 0.00 | 1.61 | 0.84 | 83 | 1013.1 |
| 20260504190022 | 79 | 20 | 5.2 | 8.7 | 0.00 | 1.61 | 0.84 | 83 | 1013.3 |
| 20260504184521 | 78 | 34 | 5.2 | 7.8 | 0.00 | 1.66 | 0.84 | 84 | 1013.6 |
| 20260504183027 | 78 | 20 | 5.2 | 8.7 | 0.00 | 1.66 | 0.84 | 84 | 1013.7 |
| 20260504181520 | 78 | 20 | 6.1 | 10.4 | 0.00 | 1.66 | 0.84 | 84 | 1013.7 |
| 20260504180019 | 78 | 24 | 6.1 | 10.4 | 0.00 | 1.66 | 0.84 | 84 | 1013.8 |
| 20260504174519 | 78 | 20 | 6.1 | 10.4 | 0.00 | 1.68 | 0.84 | 84 | 1013.8 |
| 20260504173018 | 78 | 34 | 7.8 | 11.3 | 0.00 | 1.68 | 0.84 | 83 | 1014.0 |
| 20260504171518 | 78 | 29 | 6.1 | 9.6 | 0.00 | 1.68 | 0.84 | 83 | 1013.9 |
| 20260504081548 | 75 | 323 | 5.2 | 7.8 | 0.13 | 1.68 | 0.84 | 91 | 1011.9 |
| 20260504044521 | 75 | 192 | 0.9 | 4.3 | 0.02 | 0.86 | 0.02 | 91 | 1014.2 |
| 20260504043021 | 76 | 181 | 2.6 | 5.2 | 0.02 | 0.86 | 0.02 | 90 | 1014.2 |
| 20260504041517 | 76 | 201 | 0.9 | 4.3 | 0.00 | 0.84 | 0.00 | 90 | 1014.0 |
| 20260504040015 | 75 | 212 | 0.9 | 3.5 | 0.01 | 0.84 | 0.00 | 90 | 1014.0 |
| 20260504034515 | 75 | 221 | 0.9 | 4.3 | 0.02 | 0.85 | 0.84 | 90 | 1013.8 |
| 20260504033015 | 75 | 218 | 1.7 | 4.3 | 0.08 | 0.85 | 0.84 | 90 | 1013.8 |
| 20260504031514 | 75 | 199 | 1.7 | 5.2 | 0.08 | 0.85 | 0.84 | 89 | 1014.1 |
| 20260504030015 | 75 | 199 | 1.7 | 4.3 | 0.07 | 0.84 | 0.83 | 88 | 1014.3 |
| 20260504024512 | 75 | 162 | 1.7 | 9.6 | 0.05 | 0.82 | 0.81 | 87 | 1014.3 |
| 20260504023013 | 76 | 188 | 1.7 | 5.2 | 0.00 | 0.77 | 0.76 | 85 | 1014.6 |
| 20260504021611 | 76 | 188 | 0.9 | 4.3 | 0.00 | 0.77 | 0.76 | 85 | 1014.4 |
| 20260504020013 | 76 | 221 | 0.9 | 2.6 | 0.00 | 0.77 | 0.76 | 86 | 1014.3 |
| 20260504014510 | 78 | 353 | 0.0 | 4.3 | 0.00 | 0.77 | 0.76 | 86 | 1013.9 |
| 20260504013013 | 78 | 187 | 0.9 | 2.6 | 0.00 | 0.77 | 0.76 | 87 | 1013.9 |
| 20260504011509 | 78 | 202 | 0.0 | 0.0 | 0.00 | 0.77 | 0.76 | 87 | 1014.1 |
| 20260504010010 | 78 | 41 | 0.0 | 0.0 | 0.00 | 0.77 | 0.76 | 86 | 1013.6 |
| 20260504004509 | 78 | 41 | 0.0 | 1.7 | 0.00 | 0.77 | 0.76 | 86 | 1013.5 |
| 20260504003008 | 78 | 82 | 0.0 | 0.0 | 0.00 | 0.77 | 0.76 | 85 | 1013.4 |
| 20260504001508 | 78 | 82 | 0.0 | 0.0 | 0.00 | 0.77 | 0.76 | 85 | 1013.3 |
| 20260504000017 | 78 | 68 | 0.9 | 2.6 | 0.00 | 0.77 | 0.76 | 85 | 1013.0 |
| 20260503234507 | 78 | 96 | 0.9 | 2.6 | 0.00 | 0.77 | 0.76 | 85 | 1012.9 |
| 20260503233006 | 78 | 80 | 0.0 | 3.5 | 0.00 | 0.77 | 0.76 | 84 | 1012.9 |
| 20260503231505 | 78 | 129 | 0.9 | 4.3 | 0.00 | 0.77 | 0.76 | 83 | 1012.5 |
| 20260503230007 | 78 | 49 | 0.0 | 1.7 | 0.00 | 0.77 | 0.76 | 84 | 1012.4 |
| 20260503224506 | 78 | 59 | 0.0 | 1.7 | 0.00 | 0.77 | 0.76 | 83 | 1012.7 |
| 20260503223005 | 78 | 68 | 0.0 | 3.5 | 0.00 | 0.77 | 0.76 | 83 | 1012.5 |
| 20260503221503 | 78 | 91 | 0.9 | 3.5 | 0.00 | 0.77 | 0.76 | 84 | 1012.4 |
| 20260503220005 | 77 | 67 | 0.9 | 3.5 | 0.00 | 0.77 | 0.76 | 84 | 1012.3 |
| 20260503214511 | 77 | 74 | 0.0 | 2.6 | 0.00 | 0.77 | 0.76 | 86 | 1012.6 |
| 20260503213002 | 76 | 33 | 0.9 | 3.5 | 0.00 | 0.77 | 0.76 | 87 | 1012.5 |
| 20260503211503 | 75 | 72 | 1.7 | 3.5 | 0.00 | 0.77 | 0.76 | 87 | 1012.6 |
| 20260503210003 | 75 | 34 | 1.7 | 5.2 | 0.00 | 0.77 | 0.76 | 88 | 1012.8 |
| 20260503204610 | 75 | 156 | 0.9 | 3.5 | 0.28 | 0.77 | 0.76 | 88 | 1013.2 |
| 20260503203107 | 75 | 53 | 0.9 | 5.2 | 0.39 | 0.77 | 0.76 | 89 | 1013.5 |
| 20260503201559 | 74 | 44 | 2.6 | 7.0 | 0.46 | 0.77 | 0.76 | 89 | 1013.5 |
| 20260503200057 | 74 | 47 | 4.3 | 5.2 | 0.69 | 0.77 | 0.76 | 89 | 1013.4 |
| 20260503194616 | 75 | 176 | 1.7 | 4.3 | 0.46 | 0.49 | 0.48 | 89 | 1014.5 |